Simultaneous Nadir Overpasses (SNOs) Predictions

Prediction of SNOs near US between AQUA and NPP Satellite Orbit:

Table of predicted SNOs near US for the next 10.0 days since TLE Epoch: 7/29/2016
Index Date (AQUA) Time (AQUA) AQUA Lat,Lon Date (NPP) Time (NPP) NPP Lat,Lon Distance(km) Time Diff (sec)
1 07/29/2016 21:30:40 36.70,-124.98 07/29/2016 21:30:19 36.22,-127.54 234.78 21
2 08/01/2016 09:22:40 25.47,-112.94 08/01/2016 09:15:50 25.56,-113.32 39.33 410
3 08/04/2016 06:29:59 46.38, -65.03 08/04/2016 06:31:09 46.78, -66.99 155.80 70
4 08/04/2016 08:07:53 49.89, -88.36 08/04/2016 08:11:36 50.40, -90.82 183.82 223
5 08/04/2016 09:46:46 49.89,-113.08 08/04/2016 09:53:04 50.50,-116.14 228.22 378
6 08/06/2016 19:06:02 49.96, -92.52 08/06/2016 19:01:52 49.66, -94.37 136.55 250
7 08/06/2016 20:44:55 49.96,-117.24 08/06/2016 20:43:20 49.55,-119.69 181.84 95




NCC Satellite Simultaneous Nadir Overpasses (SNOs) Prediction Service
